Hourly Weather Barsuki (Zapole)

Today, 19 April, Monday

Time Temperature Precipitation Wind Pressure Humidity
00:00 +7°C° 0 mm 3 mps 751 mmHg 86%
01:00 +5°C° 0 mm 3 mps 751 mmHg 87%
02:00 +4°C° 0 mm 3 mps 751 mmHg 88%
03:00 +4°C° 0 mm 3 mps 751 mmHg 89%
04:00 +3°C° 0 mm 3 mps 751 mmHg 91%
05:00 +3°C° 0 mm 3 mps 751 mmHg 93%
06:00 +4°C° 0 mm 3 mps 751 mmHg 87%
07:00 +5°C° 0 mm 3 mps 751 mmHg 81%
08:00 +6°C° 0 mm 4 mps 751 mmHg 76%
09:00 +8°C° 0 mm 4 mps 751 mmHg 70%
10:00 +10°C° 0 mm 4 mps 751 mmHg 63%
11:00 +11°C° 0 mm 4 mps 751 mmHg 57%
12:00 +11°C° 0 mm 4 mps 751 mmHg 59%
13:00 +11°C° 0 mm 4 mps 751 mmHg 60%
14:00 +11°C° 0 mm 4 mps 751 mmHg 62%
15:00 +11°C° 0.2 mm 4 mps 750 mmHg 63%
16:00 +11°C° 0.2 mm 4 mps 750 mmHg 65%
17:00 +11°C° 0.2 mm 4 mps 750 mmHg 66%
18:00 +10°C° 0 mm 4 mps 750 mmHg 72%
19:00 +8°C° 0 mm 4 mps 750 mmHg 78%
20:00 +6°C° 0 mm 4 mps 750 mmHg 84%
21:00 +7°C° 0 mm 3 mps 750 mmHg 87%
22:00 +5°C° 0 mm 3 mps 750 mmHg 90%
23:00 +5°C° 0 mm 2 mps 750 mmHg 93%

Tomorrow, 20 April, Tuesday

Time Temperature Precipitation Wind Pressure Humidity
00:00 +5°C° 0 mm 2 mps 749 mmHg 93%
01:00 +5°C° 0 mm 2 mps 749 mmHg 93%
02:00 +4°C° 0 mm 3 mps 749 mmHg 93%
03:00 +4°C° 0 mm 3 mps 748 mmHg 93%
04:00 +4°C° 0 mm 3 mps 748 mmHg 92%
05:00 +4°C° 0 mm 3 mps 748 mmHg 91%
06:00 +4°C° 0 mm 3 mps 748 mmHg 90%
07:00 +5°C° 0 mm 4 mps 747 mmHg 88%
08:00 +5°C° 0 mm 4 mps 747 mmHg 87%
09:00 +5°C° 0.1 mm 4 mps 747 mmHg 86%
10:00 +5°C° 0.1 mm 4 mps 747 mmHg 86%
11:00 +5°C° 0.1 mm 4 mps 747 mmHg 86%
12:00 +6°C° 0.1 mm 4 mps 746 mmHg 83%
13:00 +6°C° 0.1 mm 4 mps 746 mmHg 80%
14:00 +7°C° 0.1 mm 4 mps 746 mmHg 77%
15:00 +6°C° 0 mm 4 mps 746 mmHg 78%
16:00 +6°C° 0 mm 4 mps 745 mmHg 78%
17:00 +6°C° 0 mm 4 mps 745 mmHg 79%
18:00 +5°C° 0 mm 3 mps 745 mmHg 82%
19:00 +5°C° 0 mm 3 mps 745 mmHg 85%
20:00 +4°C° 0 mm 3 mps 745 mmHg 89%
21:00 +4°C° 0 mm 3 mps 745 mmHg 90%
22:00 +5°C° 0 mm 2 mps 744 mmHg 91%
23:00 +5°C° 0 mm 2 mps 744 mmHg 91%

Day after tomorrow, 21 April, Wednesday

Time Temperature Precipitation Wind Pressure Humidity
00:00 +5°C° 0 mm 2 mps 744 mmHg 90%
01:00 +5°C° 0 mm 2 mps 744 mmHg 89%
02:00 +5°C° 0 mm 2 mps 743 mmHg 88%
03:00 +4°C° 0 mm 2 mps 743 mmHg 87%
04:00 +4°C° 0 mm 2 mps 743 mmHg 86%
05:00 +4°C° 0 mm 2 mps 743 mmHg 85%
06:00 +5°C° 0 mm 2 mps 743 mmHg 81%
07:00 +4°C° 0 mm 3 mps 743 mmHg 76%
08:00 +5°C° 0 mm 3 mps 743 mmHg 72%
09:00 +5°C° 0 mm 3 mps 743 mmHg 75%
10:00 +5°C° 0 mm 4 mps 743 mmHg 77%
11:00 +5°C° 0 mm 4 mps 743 mmHg 79%
12:00 +7°C° 0 mm 4 mps 743 mmHg 72%
13:00 +8°C° 0 mm 4 mps 742 mmHg 66%
14:00 +10°C° 0 mm 3 mps 742 mmHg 59%
15:00 +11°C° 0.1 mm 3 mps 742 mmHg 60%
16:00 +11°C° 0.1 mm 3 mps 742 mmHg 62%
17:00 +11°C° 0.1 mm 3 mps 742 mmHg 64%
18:00 +10°C° 0.3 mm 3 mps 742 mmHg 71%
19:00 +9°C° 0.3 mm 3 mps 742 mmHg 79%
20:00 +8°C° 0.3 mm 2 mps 742 mmHg 86%
21:00 +7°C° 0.1 mm 2 mps 743 mmHg 88%
22:00 +6°C° 0.1 mm 2 mps 743 mmHg 90%
23:00 +6°C° 0.1 mm 2 mps 743 mmHg 91%

22 April, Thursday

Time Temperature Precipitation Wind Pressure Humidity
00:00 +5°C° 0 mm 2 mps 743 mmHg 91%
01:00 +5°C° 0 mm 2 mps 743 mmHg 91%
02:00 +5°C° 0 mm 2 mps 743 mmHg 91%
03:00 +5°C° 0 mm 2 mps 743 mmHg 92%
04:00 +5°C° 0 mm 2 mps 743 mmHg 92%
05:00 +5°C° 0 mm 2 mps 744 mmHg 93%
06:00 +5°C° 0.1 mm 3 mps 744 mmHg 90%
07:00 +8°C° 0.1 mm 3 mps 744 mmHg 86%
08:00 +10°C° 0.1 mm 4 mps 744 mmHg 83%
09:00 +11°C° 0.2 mm 4 mps 744 mmHg 75%
10:00 +12°C° 0.2 mm 5 mps 744 mmHg 68%
11:00 +13°C° 0.2 mm 6 mps 745 mmHg 60%
12:00 +14°C° 0.1 mm 5 mps 745 mmHg 55%
13:00 +14°C° 0.1 mm 5 mps 745 mmHg 50%
14:00 +15°C° 0.1 mm 5 mps 745 mmHg 45%
15:00 +14°C° 0 mm 4 mps 745 mmHg 47%
16:00 +14°C° 0 mm 4 mps 745 mmHg 49%
17:00 +14°C° 0 mm 3 mps 746 mmHg 52%
18:00 +12°C° 0 mm 3 mps 746 mmHg 57%
19:00 +12°C° 0 mm 2 mps 746 mmHg 62%
20:00 +9°C° 0 mm 2 mps 746 mmHg 68%
21:00 +9°C° 0 mm 3 mps 745 mmHg 73%
22:00 +9°C° 0 mm 3 mps 745 mmHg 78%
23:00 +7°C° 0 mm 4 mps 745 mmHg 83%

23 April, Friday

Time Temperature Precipitation Wind Pressure Humidity
00:00 +7°C° 0.1 mm 4 mps 744 mmHg 86%
01:00 +7°C° 0.1 mm 4 mps 744 mmHg 89%
02:00 +6°C° 0.1 mm 4 mps 744 mmHg 92%
03:00 +7°C° 0.1 mm 3 mps 744 mmHg 92%
04:00 +5°C° 0.1 mm 3 mps 744 mmHg 91%
05:00 +4°C° 0.1 mm 3 mps 744 mmHg 90%
06:00 +4°C° 0.6 mm 3 mps 745 mmHg 90%
07:00 +4°C° 0.6 mm 3 mps 745 mmHg 89%
08:00 +3°C° 0.6 mm 3 mps 745 mmHg 89%
09:00 +5°C° 0.6 mm 2 mps 746 mmHg 87%
10:00 +5°C° 0.6 mm 2 mps 746 mmHg 86%
11:00 +5°C° 0.6 mm 2 mps 746 mmHg 84%
12:00 +5°C° 0.2 mm 3 mps 746 mmHg 78%
13:00 +6°C° 0.2 mm 4 mps 745 mmHg 72%
14:00 +8°C° 0.2 mm 5 mps 745 mmHg 66%
15:00 +7°C° 0.2 mm 5 mps 745 mmHg 65%
16:00 +7°C° 0.2 mm 5 mps 745 mmHg 64%
17:00 +7°C° 0.2 mm 5 mps 745 mmHg 64%
18:00 +6°C° 0 mm 5 mps 745 mmHg 69%
19:00 +5°C° 0 mm 4 mps 745 mmHg 74%
20:00 +3°C° 0 mm 3 mps 745 mmHg 79%
21:00 +3°C° 0 mm 3 mps 746 mmHg 82%
22:00 +2°C° 0 mm 3 mps 746 mmHg 85%
23:00 +2°C° 0 mm 3 mps 746 mmHg 88%

24 April, Saturday

Time Temperature Precipitation Wind Pressure Humidity
00:00 +1°C° 0 mm 4 mps 746 mmHg 88%
01:00 +1°C° 0 mm 4 mps 746 mmHg 89%
02:00 0°C° 0 mm 4 mps 746 mmHg 89%
03:00 0°C° 0 mm 5 mps 746 mmHg 84%
04:00 0°C° 0 mm 5 mps 746 mmHg 79%
05:00 0°C° 0 mm 5 mps 746 mmHg 74%
06:00 0°C° 0 mm 5 mps 746 mmHg 70%
07:00 +1°C° 0 mm 5 mps 747 mmHg 67%
08:00 +1°C° 0 mm 5 mps 747 mmHg 63%
09:00 +2°C° 0 mm 5 mps 747 mmHg 56%
10:00 +4°C° 0 mm 4 mps 747 mmHg 49%
11:00 +6°C° 0 mm 4 mps 747 mmHg 41%
12:00 +6°C° 0 mm 4 mps 747 mmHg 42%
13:00 +6°C° 0 mm 4 mps 747 mmHg 42%
14:00 +6°C° 0 mm 4 mps 747 mmHg 42%
15:00 +5°C° 0.1 mm 3 mps 747 mmHg 50%
16:00 +5°C° 0.1 mm 2 mps 747 mmHg 58%
17:00 +5°C° 0.1 mm 1 mps 747 mmHg 67%
18:00 +5°C° 0.1 mm 1 mps 747 mmHg 74%
19:00 +4°C° 0.1 mm 1 mps 747 mmHg 80%
20:00 +3°C° 0.1 mm 1 mps 747 mmHg 87%
21:00 +3°C° 0 mm 1 mps 747 mmHg 90%
22:00 +3°C° 0 mm 1 mps 747 mmHg 92%
23:00 +2°C° 0 mm 1 mps 747 mmHg 94%
Show more